[[{"header":{"parameterUnit":"m.s-1","parameterCategory":1,"la1":30.2991,"la2":30.254,"lo1":-89.0895,"lo2":-89.0444,"dy":0.0017,"dx":0.0017,"nx":28,"ny":28,"refTime":"2023-07-17T21:00:00:Z","depth":0,"parameterNumber":2,"parameterNumberName":"U-component_of_WINDS"},"data":[0,0,0,0,0,0,0,0,0,0,0,0,0,0,0,0,0,0,0,0,0,0,0,0,0,0,0,0,0,0,0,0,0,0,0,0,0,0,0,0,0,0,0,0,0,0,0,0,0,0,0,0,0,0,0,0,0,0,1.0475,1.0476,0,1.0505,1.0506,1.0506,1.0475,1.0473,1.0472,1.0471,1.0507,1.0509,1.0511,0,0,0,0,0,0,0,0,0,0,0,0,0,1.0397,1.0399,1.0475,1.0476,1.0476,1.0505,1.0506,1.0506,1.0475,1.0473,1.0472,1.047,1.0506,1.0509,1.0511,0,0,0,0,0,0,0,0,0,0,0,0,0,1.043,1.0399,1.0475,1.0464,1.0463,1.0505,1.0506,1.0506,1.0475,1.0473,1.0472,1.047,1.0506,1.0509,1.0512,1.0568,0,0,1.0521,1.0523,0,0,0,0,0,0,0,0,1.0428,1.0432,1.0465,1.0465,1.0464,1.0484,1.0491,1.0527,1.0476,1.0471,1.0471,1.0469,1.0501,1.0505,1.0515,1.057,1.0571,1.0522,1.0524,1.0525,1.0526,0,0,0,0,0,0,0,1.0426,1.0431,1.0487,1.0466,1.0465,1.0459,1.0462,1.0498,1.0496,1.0471,1.0469,1.0473,1.0501,1.0512,1.0515,1.0572,1.0522,1.0524,1.0526,1.0528,1.0676,1.0678,0,0,0,0,0,0,1.0424,1.0429,1.0486,1.0488,1.0441,1.0462,1.0465,1.048,1.0496,1.0496,1.0474,1.0471,1.0507,1.0512,1.0516,1.0583,1.0525,1.0528,1.053,1.0674,1.0677,1.0679,0,0,0,0,0,0,1.0422,1.0429,1.0485,1.0458,1.0465,1.0465,1.0482,1.0481,1.0492,1.0498,1.0498,1.0485,1.0506,1.0512,1.0555,1.0584,1.0529,1.0532,1.0672,1.0675,1.0678,1.0718,0,0,0,0,0,0,1.042,1.0429,1.0449,1.0459,1.0466,1.0522,1.0484,1.0483,1.0497,1.0493,1.0508,1.0509,1.0505,1.0551,1.0558,1.0588,1.0535,1.0669,1.0673,1.0677,1.0714,1.0722,1.0729,0,0,0,0,0,1.0417,1.046,1.045,1.0457,1.0491,1.0524,1.0528,1.0521,1.0499,1.052,1.0524,1.0509,1.058,1.0555,1.0564,1.0594,1.0667,1.0672,1.0676,1.0711,1.0721,1.0729,0,0,0,0,0,0,1.0455,1.0461,1.045,1.0496,1.051,1.0518,1.0544,1.0531,1.0552,1.0548,1.054,1.0544,1.059,1.0597,1.0569,1.065,1.062,1.0627,1.0644,1.0653,1.066,1.0658,1.0537,0,0,0,0,0,1.0468,1.0492,1.0497,1.0538,1.0545,1.0544,1.0558,1.0551,1.0565,1.0571,1.0578,1.0594,1.062,1.0637,1.0661,1.0716,1.0719,1.0741,1.0748,1.0754,1.076,1.079,1.08,1.0694,1.0694,1.0694,0,0,1.0496,1.0503,1.0519,1.0546,1.0555,1.0582,1.0548,1.0578,1.0599,1.0576,1.0616,1.0623,1.064,1.0689,1.0711,1.0696,1.079,1.076,1.0765,1.0767,1.0796,1.0806,1.0815,1.0697,1.0696,1.0696,0,0,1.0561,1.0568,1.0603,1.0613,1.0627,1.0626,1.0635,1.0646,1.0648,1.0689,1.0672,1.0698,1.0743,1.0755,1.0768,1.084,1.0826,1.0848,1.0887,1.0916,1.0925,1.0932,1.0958,1.0967,1.0854,1.0854,1.0854,0,1.0595,1.0633,1.0623,1.0654,1.0667,1.0646,1.0682,1.0693,1.0715,1.0726,1.0709,1.0765,1.0775,1.0827,1.0844,1.0855,1.0866,1.0846,1.0924,1.0931,1.0938,1.0963,1.0972,1.0857,1.0856,1.0856,1.0856,0,1.0674,1.0701,1.0727,1.0747,1.0764,1.0797,1.0794,1.0812,1.0805,1.0807,1.0849,1.0861,1.0887,1.0899,1.0893,1.0951,1.0942,1.0925,1.0894,1.0951,1.0974,1.0983,1.086,1.0859,1.0858,1.0858,0,0,1.0761,1.0776,1.0786,1.0795,1.081,1.0832,1.0866,1.089,1.0906,1.0923,1.0951,1.099,1.0974,1.0989,1.0984,1.101,1.1067,1.099,1.099,1.1004,1.1132,1.1145,1.1156,1.1058,1.106,1.1061,1.1131,0,1.0827,1.0882,1.0875,1.093,1.0955,1.0937,1.0966,1.098,1.0983,1.1006,1.1011,1.1038,1.1015,1.1024,1.1049,1.1054,1.1092,1.1049,1.1086,1.1088,1.1081,1.1168,1.1181,1.1246,1.114,1.1141,1.1143,0,1.0909,1.0927,1.0984,1.0995,1.1006,1.1032,1.1054,1.1077,1.1092,1.1093,1.1109,1.11,1.1136,1.1106,1.1156,1.1127,1.1142,1.1148,1.115,1.1153,1.1118,1.1173,1.1266,1.1276,1.1157,1.1155,1.1154,0,1.0967,1.1006,1.1045,1.1054,1.1068,1.1087,1.1095,1.1108,1.1124,1.1144,1.1154,1.118,1.1194,1.1214,1.1213,1.1191,1.1265,1.1234,1.1267,1.1267,1.1283,1.1282,1.138,1.1293,1.1293,1.1293,1.1293,0,1.104,1.1075,1.1071,1.1095,1.1135,1.1128,1.1168,1.1173,1.1186,1.1212,1.1199,1.1224,1.1221,1.1247,1.1247,1.1289,1.1296,1.1298,1.1298,1.1299,1.1299,1.1309,1.1304,1.1296,1.1295,1.1295,1.1294,0,1.1111,1.111,1.1151,1.1161,1.1165,1.1194,1.1203,1.1227,1.1229,1.1263,1.127,1.1274,1.1305,1.1306,1.1341,1.1341,1.1392,1.1387,1.1386,1.1385,1.1418,1.1415,1.1526,1.154,1.1445,1.1445,1.1446,0,1.1157,1.1184,1.1197,1.1213,1.1221,1.1246,1.1262,1.1257,1.1274,1.1295,1.1316,1.1345,1.1367,1.1417,1.1424,1.1452,1.1447,1.1484,1.1451,1.1452,1.1447,1.1446,1.1449,1.149,1.1491,1.1492,1.1493,0,1.1239,1.1238,1.1259,1.1281,1.13,1.1318,1.1334,1.1348,1.1346,1.1366,1.1395,1.1413,1.1448,1.1478,1.1504,1.1514,1.1504,1.1503,1.1512,1.1514,1.1512,1.1513,1.1403,1.15,1.15,1.1499,1.1499,1.1498,1.1299,1.1322,1.1335,1.136,1.1372,1.1388,1.141,1.1415,1.144,1.1467,1.1463,1.1497,1.1514,1.1548,1.1561,1.1588,1.1576,1.1589,1.1592,1.1596,1.1599,1.1508,1.1593,1.1593,1.1593,1.1593,1.1592,0,1.138,1.1388,1.1411,1.1434,1.1455,1.1442,1.1459,1.1478,1.1507,1.1523,1.1545,1.158,1.1609,1.1619,1.1647,1.1667,1.1663,1.1675,1.1673,1.1676,1.1608,1.1598,1.1678,1.1678,1.1678,1.1678,1.1678,1.1678,1.1425,1.1463,1.1463,1.1508,1.1516,1.1547,1.1559,1.1574,1.1587,1.1626,1.1649,1.1655,1.1669,1.1698,1.1725,1.1727,1.1738,1.1752,1.1753,1.1689,1.1681,1.1672,1.1662,1.1755,1.1755,1.1818,1.1818,1.1819]},{"header":{"parameterUnit":"m.s-1","parameterCategory":1,"la1":30.2991,"la2":30.254,"lo1":-89.0895,"lo2":-89.0444,"dy":0.0017,"dx":0.0017,"nx":28,"ny":28,"refTime":"2023-07-17T21:00:00:Z","depth":0,"parameterNumber":3,"parameterNumberName":"V-component_of_WINDS"},"data":[0,0,0,0,0,0,0,0,0,0,0,0,0,0,0,0,0,0,0,0,0,0,0,0,0,0,0,0,0,0,0,0,0,0,0,0,0,0,0,0,0,0,0,0,0,0,0,0,0,0,0,0,0,0,0,0,0,0,2.6632,2.6633,0,2.6696,2.6697,2.6697,2.668,2.6678,2.6677,2.6676,2.6734,2.6736,2.6739,0,0,0,0,0,0,0,0,0,0,0,0,0,2.6489,2.6492,2.6632,2.6633,2.6634,2.6696,2.6697,2.6698,2.668,2.6678,2.6677,2.6675,2.6733,2.6736,2.6739,0,0,0,0,0,0,0,0,0,0,0,0,0,2.6551,2.6492,2.6632,2.6633,2.6633,2.6696,2.6697,2.6698,2.668,2.6678,2.6676,2.6675,2.6732,2.6736,2.674,2.6803,0,0,2.6752,2.6754,0,0,0,0,0,0,0,0,2.6548,2.6557,2.6632,2.6633,2.6634,2.6678,2.6667,2.6733,2.6681,2.6662,2.6676,2.6674,2.6716,2.6721,2.6737,2.6806,2.6808,2.6752,2.6755,2.6757,2.6758,0,0,0,0,0,0,0,2.6544,2.6554,2.6657,2.6633,2.6634,2.6628,2.6634,2.668,2.6699,2.6664,2.6663,2.6671,2.6716,2.6733,2.6738,2.6809,2.6752,2.6756,2.6758,2.676,2.6933,2.6935,0,0,0,0,0,0,2.654,2.655,2.6655,2.6659,2.6586,2.6632,2.6639,2.6666,2.6698,2.6702,2.6672,2.667,2.6727,2.6734,2.674,2.6818,2.6757,2.676,2.6763,2.6931,2.6934,2.6936,0,0,0,0,0,0,2.6537,2.6549,2.6653,2.6605,2.6617,2.6636,2.6666,2.6668,2.6685,2.6705,2.6708,2.6687,2.6726,2.6735,2.6788,2.6819,2.6762,2.6766,2.6929,2.6932,2.6935,2.6972,0,0,0,0,0,0,2.6533,2.6548,2.6574,2.6606,2.662,2.6702,2.6668,2.6671,2.6693,2.669,2.6719,2.6722,2.6725,2.6782,2.6792,2.6824,2.6769,2.6926,2.693,2.6934,2.6968,2.6976,2.6983,0,0,0,0,0,2.6528,2.658,2.6575,2.6588,2.6653,2.6703,2.6711,2.6716,2.6696,2.6721,2.6734,2.6721,2.6814,2.6788,2.6799,2.6832,2.6924,2.6929,2.6934,2.6964,2.6974,2.6983,0,0,0,0,0,0,2.6548,2.6584,2.6579,2.6644,2.6671,2.67,2.6732,2.6726,2.6758,2.6753,2.6756,2.6762,2.6817,2.683,2.68,2.6896,2.6866,2.6873,2.6886,2.6895,2.6902,2.6898,2.6773,0,0,0,0,0,2.6561,2.6601,2.6629,2.6683,2.6698,2.6713,2.6735,2.6737,2.6764,2.6774,2.6791,2.6816,2.6851,2.6873,2.6906,2.697,2.6975,2.6998,2.7005,2.7011,2.7017,2.7052,2.7063,2.6952,2.6952,2.6952,0,0,2.6586,2.6611,2.6635,2.6688,2.671,2.6749,2.6722,2.6765,2.6794,2.678,2.6832,2.6846,2.6873,2.6933,2.6959,2.6945,2.705,2.7018,2.7022,2.7025,2.7058,2.7069,2.7078,2.6955,2.6955,2.6954,0,0,2.6653,2.6676,2.6724,2.6747,2.6781,2.6791,2.6803,2.6833,2.6843,2.6896,2.6886,2.692,2.698,2.7001,2.7019,2.7096,2.7085,2.7106,2.7144,2.7178,2.7187,2.7195,2.7222,2.7232,2.7112,2.7112,2.7112,0,2.6679,2.6742,2.6749,2.6794,2.6817,2.6809,2.6857,2.6878,2.692,2.6935,2.6919,2.6995,2.7013,2.7077,2.7096,2.7111,2.7124,2.7102,2.7186,2.7194,2.7201,2.7227,2.7237,2.7114,2.7114,2.7114,2.7114,0,2.6773,2.6816,2.6851,2.6895,2.6922,2.6968,2.698,2.7006,2.7006,2.7017,2.7072,2.7093,2.7131,2.7147,2.7145,2.7211,2.7201,2.7185,2.7155,2.7214,2.7238,2.7249,2.7118,2.7117,2.7116,2.7116,0,0,2.6853,2.6903,2.6915,2.6936,2.6973,2.7006,2.7051,2.7091,2.7114,2.7143,2.718,2.7232,2.7219,2.7239,2.724,2.727,2.733,2.7251,2.7252,2.7265,2.7404,2.7416,2.7427,2.7324,2.7326,2.7327,2.7402,0,2.6923,2.7007,2.7015,2.7088,2.7128,2.7122,2.7161,2.7188,2.72,2.7233,2.7245,2.7283,2.7262,2.7275,2.7304,2.7317,2.7358,2.7311,2.7357,2.7359,2.7351,2.744,2.7452,2.7521,2.7411,2.7413,2.7414,0,2.7016,2.7052,2.713,2.7164,2.7181,2.7217,2.7255,2.7288,2.7317,2.7323,2.7348,2.7346,2.7391,2.736,2.7421,2.739,2.7409,2.7418,2.7421,2.7425,2.739,2.7447,2.7543,2.7554,2.7429,2.7428,2.7427,0,2.7067,2.7134,2.7191,2.7208,2.7249,2.7274,2.7291,2.7319,2.7343,2.7376,2.7391,2.7427,2.7447,2.7474,2.7481,2.7458,2.7542,2.7512,2.7548,2.7548,2.7565,2.7564,2.7667,2.7578,2.7578,2.7578,2.7577,0,2.7145,2.7193,2.7214,2.7249,2.7302,2.7311,2.7363,2.7379,2.7404,2.744,2.7435,2.7469,2.7476,2.751,2.7515,2.7566,2.7574,2.758,2.7581,2.7581,2.758,2.7593,2.7588,2.758,2.758,2.7579,2.7579,0,2.721,2.7227,2.7288,2.7322,2.7332,2.737,2.7399,2.7431,2.7443,2.7489,2.75,2.7518,2.7558,2.7568,2.7615,2.7619,2.7678,2.7674,2.7669,2.7669,2.7705,2.7702,2.7819,2.7835,2.7736,2.7737,2.7738,0,2.7258,2.7296,2.7336,2.7361,2.7381,2.7421,2.7447,2.7457,2.7483,2.7521,2.7548,2.7589,2.7622,2.7686,2.7702,2.7738,2.7735,2.7774,2.774,2.7739,2.7736,2.7734,2.7737,2.778,2.7781,2.7782,2.7783,0,2.7342,2.735,2.7388,2.743,2.7462,2.7494,2.7525,2.7545,2.7559,2.7589,2.7632,2.7658,2.7708,2.7748,2.7785,2.78,2.7794,2.7793,2.7804,2.7804,2.78,2.7803,2.7687,2.779,2.779,2.7789,2.7789,2.7788,2.7401,2.7434,2.7469,2.7512,2.7537,2.7567,2.76,2.7618,2.7655,2.7698,2.7701,2.7748,2.7776,2.7826,2.7844,2.7879,2.7867,2.7882,2.7885,2.7889,2.7893,2.7795,2.7886,2.7885,2.7885,2.7885,2.7885,0,2.7485,2.7507,2.7547,2.7593,2.7627,2.7621,2.7655,2.7683,2.7726,2.7755,2.7788,2.7838,2.7877,2.7897,2.7936,2.796,2.7958,2.797,2.7968,2.7972,2.7901,2.7888,2.7971,2.7971,2.7971,2.7971,2.7971,2.7971,2.7532,2.7589,2.7601,2.767,2.7691,2.774,2.776,2.7787,2.7811,2.7867,2.7901,2.7915,2.794,2.7981,2.8017,2.8021,2.8035,2.8049,2.8052,2.7985,2.7977,2.7968,2.7957,2.8052,2.8052,2.812,2.8121,2.8121]}]]